Location: Vale
(35.4830°N, 81.3830°W)
Time: 04:45:18
(UTC-04:00)

Amateur Radio Satellites - All Passes

Search period start: 16 April 2014 04:15
Search period end: 17 April 2014 04:15
Location: Vale, 35.4830°N, 81.3830°W

Satellite Date Start Highest point End Downlink Frequencies (MHz)
Time Altitude Azimuth
ITAMSAT 1 16 Apr 04:18:17 04:23:01 38° 289° (WNW) 04:27:45 435.822 SSB
TMSAT-1 16 Apr 04:27:14 04:32:26 55° 100° (E) 04:37:36 436.925 FM
Oscar 19 16 Apr 04:33:32 04:36:21 15° 296° (WNW) 04:39:10 437.125 CW, 437.150 USB
Oscar 10/S400 16 Apr 04:35:07 04:56:49 53° 145° (SE) 14:15:25 145.825 - 145.975 CW/USB, Beacon 145.810 USB
Oscar 16 16 Apr 04:42:08 04:43:48 12° 298° (WNW) 04:45:27 437.025 USB, Beacon 2401.1428
AO-Echo 16 Apr 05:06:10 05:08:45 15° 295° (WNW) 05:11:19 ?
KITSAT 1 16 Apr 05:07:44 05:15:31 49° 304° (NW) 05:23:21 435.175 FM
AO-7 16 Apr 05:08:02 05:15:25 34° 98° (E) 05:22:45 29.400 - 29.500 MHz
Uribyol 2 16 Apr 05:10:03 05:11:58 12° 298° (WNW) 05:13:54 436.500 FM
Gurwin Techsat 1B 16 Apr 05:16:42 05:21:29 35° 290° (WNW) 05:26:14 435.225 FM
Uosat F 16 Apr 05:19:09 05:24:07 63° 102° (ESE) 05:29:03 435.120 FM
AO-40 16 Apr 05:24:10 11:02:54 43° 180° (S) 17:38:59 Beacon 2401.320
JAS-1B 16 Apr 05:29:52 05:35:34 86° 104° (ESE) 05:41:27 435.800 - 435.900 CW/SSB
UOSAT-12 16 Apr 05:42:36 05:45:50 19° 251° (WSW) 05:49:02 437.025 FM, 437.400 FM
RS-15 16 Apr 05:50:44 05:53:54 12° 97° (E) 05:57:02 29.354 - 29.394 USB, Beacon 29.352 USB
STRAND 1 16 Apr 05:55:52 05:57:35 12° 62° (ENE) 05:59:19 ?
TMSAT-1 16 Apr 06:08:37 06:11:52 17° 295° (WNW) 06:15:07 436.925 FM
Uosat F 16 Apr 07:00:00 07:02:20 13° 297° (WNW) 07:04:39 435.120 FM
AO-7 16 Apr 07:00:26 07:08:16 48° 295° (WNW) 07:16:06 29.400 - 29.500 MHz
KITSAT 1 16 Apr 07:10:32 07:13:09 12° 328° (NNW) 07:15:47 435.175 FM
Hamsat 16 Apr 07:20:35 07:24:48 48° 99° (E) 07:29:00 145.90 MHz
STRAND 1 16 Apr 07:30:59 07:36:06 76° 257° (WSW) 07:41:14 ?
JAS-2 16 Apr 07:45:18 07:49:49 27° 97° (E) 07:54:40 435.800 - 435.900 CW/SSB, 435.910 FM
RS-15 16 Apr 07:52:57 08:04:16 70° 114° (ESE) 08:15:10 29.354 - 29.394 USB, Beacon 29.352 USB
MaSat-1 16 Apr 07:58:03 07:59:54 15° 63° (ENE) 08:01:55 437.345 MHz
SO-67 16 Apr 08:05:50 08:08:45 24° 96° (E) 08:11:39 435.3500 MHz FM
Hamsat 16 Apr 08:58:19 09:00:21 13° 293° (WNW) 09:02:23 145.90 MHz
JAS-2 16 Apr 09:30:11 09:34:54 33° 289° (WNW) 09:40:00 435.800 - 435.900 CW/SSB, 435.910 FM
MaSat-1 16 Apr 09:35:53 09:38:16 20° 250° (WSW) 09:40:58 437.345 MHz
SO-67 16 Apr 09:39:37 09:41:40 15° 290° (WNW) 09:43:44 435.3500 MHz FM
HO-68 16 Apr 09:43:07 09:49:09 28° 96° (E) 09:55:08 435.675 MHz FM
PANSAT 16 Apr 09:51:57 09:53:04 11° 159° (SSE) 09:54:11 not established
RS-15 16 Apr 10:07:36 10:17:25 34° 316° (NW) 10:27:04 29.354 - 29.394 USB, Beacon 29.352 USB
PCSat 16 Apr 10:16:14 10:19:53 18° 50° (NE) 10:23:30 145.825 MHz
Oscar 11 16 Apr 10:20:59 10:24:07 19° 95° (E) 10:27:14 145.825 FM, Beacon 2401.500 USB
KITSAT 1 16 Apr 11:11:28 11:14:18 12° 33° (NNE) 11:17:06 435.175 FM
Sapphire 16 Apr 11:13:10 11:18:25 49° 60° (ENE) 11:23:38 437.095 MHz 1200 baud AX-25 AFSK
PANSAT 16 Apr 11:29:34 11:32:42 24° 171° (S) 11:35:51 not established
HO-68 16 Apr 11:30:10 11:36:58 48° 292° (WNW) 11:43:46 435.675 MHz FM
FUNcube-1 16 Apr 11:35:38 11:39:40 42° 99° (E) 11:43:46 145.950 - 145.970 MHz USB
Saudisat 1A 16 Apr 11:54:21 11:58:23 34° 113° (ESE) 12:02:26 436.775 MHz
Oscar 11 16 Apr 11:56:29 12:00:19 31° 289° (WNW) 12:04:08 145.825 FM, Beacon 2401.500 USB
PCSat 16 Apr 11:58:22 12:03:43 62° 247° (WSW) 12:09:02 145.825 MHz
RS-15 16 Apr 12:30:37 12:34:48 12° 350° (N) 12:38:59 29.354 - 29.394 USB, Beacon 29.352 USB
Sapphire 16 Apr 12:57:41 13:01:24 19° 255° (WSW) 13:05:08 437.095 MHz 1200 baud AX-25 AFSK
KITSAT 1 16 Apr 13:04:02 13:11:52 50° 56° (ENE) 13:19:38 435.175 FM
PANSAT 16 Apr 13:09:10 13:12:30 28° 183° (S) 13:15:50 not established
FUNcube-1 16 Apr 13:13:29 13:15:44 14° 293° (WNW) 13:18:00 145.950 - 145.970 MHz USB
Saudisat 1A 16 Apr 13:34:31 13:38:02 22° 309° (NW) 13:41:35 436.775 MHz
AO-27 16 Apr 13:43:39 13:47:23 21° 66° (ENE) 13:51:08 436.795 MHz FM
ITAMSAT 1 16 Apr 13:54:44 13:58:56 26° 68° (ENE) 14:03:08 435.822 SSB
Oscar 19 16 Apr 14:06:18 14:11:21 64° 74° (ENE) 14:16:27 437.125 CW, 437.150 USB
Oscar 16 16 Apr 14:13:54 14:19:01 83° 76° (ENE) 14:24:11 437.025 USB, Beacon 2401.1428
AO-Echo 16 Apr 14:35:11 14:40:17 51° 73° (ENE) 14:45:18 ?
Uribyol 2 16 Apr 14:42:53 14:48:03 82° 75° (ENE) 14:53:13 436.500 FM
RS-15 16 Apr 14:46:52 14:53:55 18° 28° (NNE) 15:00:59 29.354 - 29.394 USB, Beacon 29.352 USB
PANSAT 16 Apr 14:49:39 14:52:14 17° 196° (SSW) 14:54:49 not established
Gurwin Techsat 1B 16 Apr 14:55:24 14:59:57 30° 69° (ENE) 15:04:29 435.225 FM
KITSAT 1 16 Apr 14:59:58 15:06:54 33° 254° (WSW) 15:13:48 435.175 FM
AO-27 16 Apr 15:21:39 15:26:34 43° 261° (W) 15:31:30 436.795 MHz FM
ITAMSAT 1 16 Apr 15:33:35 15:38:14 33° 262° (W) 15:42:54 435.822 SSB
OPAL 16 Apr 15:33:36 15:38:17 33° 99° (E) 15:42:57 ?
TMSAT-1 16 Apr 15:44:58 15:50:11 63° 74° (ENE) 15:55:25 436.925 FM
Oscar 19 16 Apr 15:49:02 15:51:05 12° 269° (W) 15:53:10 437.125 CW, 437.150 USB
AO-7 16 Apr 16:03:57 16:11:17 37° 63° (ENE) 16:18:37 29.400 - 29.500 MHz
JAS-1B 16 Apr 16:09:41 16:18:06 60° 73° (ENE) 16:25:08 435.800 - 435.900 CW/SSB
AO-Echo 16 Apr 16:15:54 16:19:15 17° 267° (W) 16:22:34 ?
Uosat F 16 Apr 16:29:23 16:34:20 64° 74° (ENE) 16:39:19 435.120 FM
ISS 16 Apr 16:34:54 16:38:09 55° 135° (SE) 16:41:27 145.800 FM
Gurwin Techsat 1B 16 Apr 16:35:14 16:39:48 29° 263° (W) 16:44:25 435.225 FM
RS-15 16 Apr 16:58:17 17:09:08 61° 56° (NE) 17:20:14 29.354 - 29.394 USB, Beacon 29.352 USB
SO-50 16 Apr 17:08:31 17:12:58 69° 301° (WNW) 17:17:28 436.795 FM
OPAL 16 Apr 17:12:41 17:16:59 27° 294° (WNW) 17:21:17 ?
TMSAT-1 16 Apr 17:28:04 17:30:29 13° 268° (W) 17:32:56 436.925 FM
AO-7 16 Apr 17:56:01 18:03:49 45° 259° (W) 18:11:41 29.400 - 29.500 MHz
JAS-1B 16 Apr 18:02:02 18:08:43 25° 263° (W) 18:14:41 435.800 - 435.900 CW/SSB
UOSAT-12 16 Apr 18:10:37 18:14:17 25° 111° (ESE) 18:18:01 437.025 FM, 437.400 FM
Uosat F 16 Apr 18:11:35 18:13:30 12° 268° (W) 18:15:25 435.120 FM
Hamsat 16 Apr 18:11:52 18:15:11 23° 70° (ENE) 18:18:32 145.90 MHz
ISS 16 Apr 18:12:50 18:15:09 17° 331° (NNW) 18:17:27 145.800 FM
RS-15 16 Apr 19:11:28 19:20:48 34° 254° (WSW) 19:30:26 29.354 - 29.394 USB, Beacon 29.352 USB
JAS-2 16 Apr 19:38:28 19:44:36 69° 75° (ENE) 19:50:05 435.800 - 435.900 CW/SSB, 435.910 FM
STRAND 1 16 Apr 19:44:51 19:49:45 47° 100° (E) 19:54:38 ?
Hamsat 16 Apr 19:47:42 19:51:04 24° 265° (W) 19:54:28 145.90 MHz
UOSAT-12 16 Apr 19:50:14 19:54:16 31° 307° (NW) 19:58:24 437.025 FM, 437.400 FM
SO-67 16 Apr 20:08:59 20:12:27 71° 259° (W) 20:15:57 435.3500 MHz FM
HO-68 16 Apr 20:10:49 20:14:53 16° 58° (ENE) 20:18:57 435.675 MHz FM
Saudisat 1A 16 Apr 20:25:09 20:27:27 14° 46° (NE) 20:29:45 436.775 MHz
Oscar 11 16 Apr 21:15:25 21:16:36 11° 65° (ENE) 21:17:47 145.825 FM, Beacon 2401.500 USB
STRAND 1 16 Apr 21:25:10 21:28:33 18° 295° (WNW) 21:31:55 ?
JAS-2 16 Apr 21:27:12 21:29:57 13° 266° (W) 21:32:35 435.800 - 435.900 CW/SSB, 435.910 FM
HO-68 16 Apr 21:54:30 22:01:38 86° 254° (WSW) 22:08:49 435.675 MHz FM
MaSat-1 16 Apr 21:59:10 22:01:12 16° 110° (ESE) 22:03:04 437.345 MHz
Saudisat 1A 16 Apr 22:03:07 22:07:28 62° 243° (WSW) 22:11:45 436.775 MHz
FUNcube-1 16 Apr 22:30:05 22:33:28 24° 70° (ENE) 22:36:49 145.950 - 145.970 MHz USB
Oscar 11 16 Apr 22:48:02 22:52:16 57° 260° (W) 22:56:31 145.825 FM, Beacon 2401.500 USB
ISS 16 Apr 23:06:40 23:09:18 21° 31° (NNE) 23:11:55 145.800 FM
MaSat-1 16 Apr 23:37:45 23:39:32 15° 297° (WNW) 23:41:11 437.345 MHz
HO-68 16 Apr 23:47:40 23:50:09 12° 270° (W) 23:52:38 435.675 MHz FM
FUNcube-1 17 Apr 00:06:22 00:09:47 23° 264° (W) 00:13:11 145.950 - 145.970 MHz USB
ISS 17 Apr 00:42:59 00:46:09 39° 227° (SW) 00:49:17 145.800 FM
PCSat 17 Apr 00:54:44 00:59:10 27° 107° (ESE) 01:03:37 145.825 MHz
SO-50 17 Apr 01:43:01 01:47:29 45° 56° (ENE) 01:52:00 436.795 FM
Sapphire 17 Apr 01:51:38 01:57:02 85° 115° (ESE) 02:02:29 437.095 MHz 1200 baud AX-25 AFSK
ITAMSAT 1 17 Apr 02:13:05 02:14:09 11° 91° (E) 02:15:13 435.822 SSB
Oscar 19 17 Apr 02:21:27 02:25:57 29° 97° (E) 02:30:25 437.125 CW, 437.150 USB
Oscar 16 17 Apr 02:28:58 02:33:47 37° 98° (E) 02:38:34 437.025 USB, Beacon 2401.1428
PCSat 17 Apr 02:37:26 02:42:23 36° 303° (WNW) 02:47:22 145.825 MHz
UOSAT-12 17 Apr 02:44:00 02:45:59 12° 44° (NE) 02:47:58 437.025 FM, 437.400 FM
OPAL 17 Apr 02:45:41 02:50:21 41° 69° (ENE) 02:55:06 ?
AO-Echo 17 Apr 02:46:52 02:50:13 19° 94° (E) 02:53:31 ?
Uribyol 2 17 Apr 02:59:01 03:03:47 37° 98° (E) 03:08:33 436.500 FM
Gurwin Techsat 1B 17 Apr 03:15:48 03:18:42 15° 92° (E) 03:21:35 435.225 FM
SO-50 17 Apr 03:24:40 03:27:42 17° 251° (WSW) 03:30:45 436.795 FM
KITSAT 1 17 Apr 03:28:31 03:36:17 52° 111° (ESE) 03:44:05 435.175 FM
AO-27 17 Apr 03:37:27 03:42:39 88° 104° (ESE) 03:47:50 436.795 MHz FM
Sapphire 17 Apr 03:38:29 03:41:09 14° 313° (NW) 03:43:49 437.095 MHz 1200 baud AX-25 AFSK
ITAMSAT 1 17 Apr 03:48:57 03:54:06 73° 285° (WNW) 03:59:15 435.822 SSB
Oscar 19 17 Apr 04:00:45 04:05:11 29° 291° (WNW) 04:09:36 437.125 CW, 437.150 USB
JAS-1B 17 Apr 04:01:08 04:03:24 12° 92° (E) 04:05:41 435.800 - 435.900 CW/SSB
TMSAT-1 17 Apr 04:04:19 04:09:02 32° 97° (E) 04:13:43 436.925 FM
